Storm Creek Lake Weather Center

Moon Phase Calendar



Storm Creek Lake Water Level
Online Cameras

 


      

Current Conditions in West Helena
12/9/2021 2:13:59 AM

39°F
Feels Like 34
Clouds
Humidity
67%
Pressure
30.03"
Wind
8.2 mph (SSE)
Dew Point
30°F
UV Index
0/10 (Low)
Visibility
6 mi

Hourly Forecast

Date & Time Thu, Dec 9
2:00 AM
Thu, Dec 9
3:00 AM
Thu, Dec 9
4:00 AM
Thu, Dec 9
5:00 AM
Thu, Dec 9
6:00 AM
Thu, Dec 9
7:00 AM
Thu, Dec 9
8:00 AM
Thu, Dec 9
9:00 AM
Thu, Dec 9
10:00 AM
Thu, Dec 9
11:00 AM
Thu, Dec 9
12:00 PM
Thu, Dec 9
1:00 PM
Thu, Dec 9
2:00 PM
Thu, Dec 9
3:00 PM
Thu, Dec 9
4:00 PM
Thu, Dec 9
5:00 PM
Thu, Dec 9
6:00 PM
Thu, Dec 9
7:00 PM
Thu, Dec 9
8:00 PM
Thu, Dec 9
9:00 PM
Thu, Dec 9
10:00 PM
Thu, Dec 9
11:00 PM
Fri, Dec 10
12:00 AM
Fri, Dec 10
1:00 AM
Fri, Dec 10
2:00 AM
Fri, Dec 10
3:00 AM
Fri, Dec 10
4:00 AM
Fri, Dec 10
5:00 AM
Fri, Dec 10
6:00 AM
Fri, Dec 10
7:00 AM
Fri, Dec 10
8:00 AM
Fri, Dec 10
9:00 AM
Fri, Dec 10
10:00 AM
Fri, Dec 10
11:00 AM
Fri, Dec 10
12:00 PM
Fri, Dec 10
1:00 PM
Fri, Dec 10
2:00 PM
Fri, Dec 10
3:00 PM
Fri, Dec 10
4:00 PM
Fri, Dec 10
5:00 PM
Fri, Dec 10
6:00 PM
Fri, Dec 10
7:00 PM
Fri, Dec 10
8:00 PM
Fri, Dec 10
9:00 PM
Fri, Dec 10
10:00 PM
Fri, Dec 10
11:00 PM
Sat, Dec 11
12:00 AM
Sat, Dec 11
1:00 AM
Condition
Clouds

Clouds

Clouds

Clouds

Clouds

Clouds

Clouds

Clouds

Clouds

Clouds

Clouds

Clouds

Clouds

Clouds

Clouds

Clouds

Clouds

Clouds

Clouds

Clouds

Clouds

Clouds

Clouds

Clouds

Rain

Clouds

Clouds

Clouds

Clouds

Clouds

Clouds

Clouds

Clouds

Clouds

Clouds

Clouds

Clouds

Clouds

Clouds

Clouds

Clouds

Rain

Rain

Rain

Rain

Rain

Rain

Rain
Temperature 39°F40°F41°F42°F42°F43°F46°F51°F55°F58°F61°F59°F63°F64°F63°F61°F61°F61°F62°F62°F62°F63°F64°F65°F65°F66°F66°F66°F66°F66°F67°F69°F70°F71°F71°F73°F73°F72°F71°F71°F71°F72°F72°F71°F71°F70°F70°F71°F
Feels Like 34°F35°F36°F36°F37°F37°F39°F49°F54°F57°F61°F59°F62°F64°F63°F61°F61°F62°F62°F63°F63°F63°F64°F65°F66°F67°F67°F67°F67°F67°F68°F69°F70°F72°F72°F73°F73°F73°F72°F72°F72°F73°F73°F72°F72°F71°F71°F71°F
Cloudiness 100%100%100%99%99%82%91%94%95%96%96%100%100%100%100%100%100%100%100%100%100%100%99%100%100%100%100%100%100%100%100%100%100%100%100%100%100%100%100%100%100%100%100%100%100%100%100%100%
Visibility 6 mi6 mi6 mi6 mi6 mi6 mi6 mi6 mi6 mi6 mi6 mi6 mi6 mi6 mi6 mi6 mi6 mi6 mi6 mi6 mi6 mi6 mi6 mi6 mi6 mi6 mi6 mi6 mi6 mi6 mi6 mi6 mi6 mi6 mi6 mi6 mi6 mi6 mi6 mi6 mi6 mi6 mi6 mi3 mi5 mi3 mi6 mi6 mi
Precipitation 0%0%0%0%0%0%0%0%0%0%0%0%0%0%0%0%0%13%8%6%10%14%12%7%33%13%18%6%4%3%2%0%0%0%0%0%0%0%0%0%0%68%94%94%99%100%100%96%
Humidity 67%68%69%70%72%76%75%74%75%76%77%85%82%82%85%91%94%95%96%96%96%97%97%97%97%95%95%93%95%95%93%89%88%84%83%80%79%84%85%87%87%87%83%86%86%88%86%78%
Dew Point 30°F31°F32°F33°F34°F36°F39°F43°F47°F51°F54°F55°F57°F58°F59°F59°F59°F60°F61°F61°F61°F62°F63°F64°F65°F65°F65°F65°F65°F65°F65°F66°F66°F66°F66°F66°F66°F67°F67°F67°F67°F68°F67°F67°F67°F67°F66°F64°F
Pressure 30.03"30.03"30.03"30"29.97"29.97"29.94"29.97"29.97"29.94"29.91"29.88"29.85"29.85"29.88"29.88"29.88"29.88"29.88"29.88"29.88"29.88"29.85"29.85"29.85"29.85"29.83"29.83"29.85"29.85"29.85"29.85"29.85"29.83"29.8"29.77"29.77"29.77"29.74"29.74"29.74"29.74"29.74"29.74"29.74"29.77"29.74"29.74"
Wind Speed 8.2 mph7.9 mph8.3 mph9.7 mph9.8 mph11.8 mph17 mph12.6 mph14.2 mph17.1 mph17.7 mph14.3 mph16.3 mph13.9 mph12.1 mph9.7 mph9.1 mph10.4 mph10.1 mph11.6 mph12.6 mph13.1 mph12.9 mph12.3 mph12.2 mph13.6 mph13.2 mph14.3 mph13.2 mph14.2 mph14.4 mph15.5 mph16.1 mph16.3 mph17.3 mph17.7 mph19 mph19 mph19.2 mph18.7 mph18 mph19.9 mph22.1 mph22.2 mph22.2 mph21.6 mph21.4 mph21.9 mph
Wind
Direction
165°
SSE
166°
SSE
160°
SSE
161°
SSE
162°
SSE
166°
SSE
174°
S
191°
S
196°
SSW
193°
SSW
196°
SSW
188°
S
195°
SSW
200°
SSW
201°
SSW
189°
S
174°
S
172°
S
171°
S
170°
S
171°
S
174°
S
183°
S
191°
S
195°
SSW
205°
SSW
199°
SSW
199°
SSW
192°
SSW
189°
S
192°
SSW
192°
SSW
194°
SSW
197°
SSW
197°
SSW
200°
SSW
203°
SSW
197°
SSW
195°
SSW
192°
SSW
190°
S
188°
S
193°
SSW
198°
SSW
206°
SSW
211°
SSW
209°
SSW
216°
SW

Daily Forecast

Date High Low Precip. Humidity
Today
Dec 9

Clouds
64 °F
39 °F
14%
76%
Friday
Dec 10

Rain
73 °F
64 °F
94%
84%
Saturday
Dec 11

Rain
70 °F
45 °F
100%
40%
Sunday
Dec 12

Clear
55 °F
38 °F
0%
37%
Monday
Dec 13

Clear
63 °F
42 °F
0%
47%
Tuesday
Dec 14

Clouds
65 °F
57 °F
0%
82%
Wednesday
Dec 15

Clouds
73 °F
63 °F
0%
65%
Thursday
Dec 16

Clouds
69 °F
58 °F
0%
55%
Friday
Dec 17

Rain
60 °F
51 °F
96%
91%
Saturday
Dec 18

Clouds
58 °F
48 °F
0%
35%
Sunday
Dec 19

Clouds
51 °F
45 °F
0%
45%
Monday
Dec 20

Rain
65 °F
48 °F
100%
71%
Tuesday
Dec 21

Rain
63 °F
43 °F
100%
54%
Wednesday
Dec 22

Clouds
47 °F
36 °F
0%
49%
Thursday
Dec 23

Clouds
36 °F
32 °F
2%
47%
Friday
Dec 24

Clouds
40 °F
34 °F
0%
44%

Temperature 8-14 Day Outlook



Precipitation 8-14 Day Outlook




Quick Links
Storm Creek Lake News
Storm Creek Lake Photos
Storm Creek Lake Videos




About Us
Contact Us
Site Map
Search Site
Advertise With Us
   
StormCreek.LakesOnline.com
THE STORM CREEK LAKE WEBSITE

Copyright 2021, Lakes Online
Privacy    |    Legal